Time,TemperatureF,DewpointF,PressureIn,WindDirection,WindDirectionDegrees,WindSpeedMPH,WindSpeedGustMPH,Humidity,HourlyPrecipIn,Conditions,Clouds,dailyrainin,SoftwareType,DateUTC
2013-02-24 00:09:00,32.2,31.7,29.90,SE,131,0.0,5.0,98,0.00,,,0.00,Wunderground v.1.15,2013-02-24 05:09:00,
2013-02-24 00:20:00,32.1,31.6,29.89,SSE,151,1.0,1.0,98,0.00,,,0.00,Wunderground v.1.15,2013-02-24 05:20:00,
2013-02-24 00:30:00,32.1,31.6,29.89,SSE,151,0.0,5.0,98,0.00,,,0.00,Wunderground v.1.15,2013-02-24 05:30:00,
2013-02-24 00:39:00,32.1,31.6,29.89,SSE,156,1.0,1.0,98,0.00,,,0.00,Wunderground v.1.15,2013-02-24 05:39:00,
2013-02-24 00:49:00,32.1,31.6,29.89,SSE,157,0.0,5.0,98,0.00,,,0.00,Wunderground v.1.15,2013-02-24 05:49:00,
2013-02-24 01:00:00,32.1,31.6,29.88,SSE,166,1.0,1.0,98,0.00,,,0.00,Wunderground v.1.15,2013-02-24 06:00:00,
2013-02-24 01:10:00,32.1,31.9,29.88,SSE,166,0.0,5.0,99,0.00,,,0.00,Wunderground v.1.15,2013-02-24 06:10:00,
2013-02-24 01:20:00,32.1,31.9,29.87,SSE,160,1.0,1.0,99,0.00,,,0.00,Wunderground v.1.15,2013-02-24 06:20:00,
2013-02-24 01:30:00,31.9,31.7,29.87,SSE,159,0.0,5.0,99,0.00,,,0.00,Wunderground v.1.15,2013-02-24 06:30:00,
2013-02-24 01:40:00,31.9,31.7,29.87,SSE,160,0.0,5.0,99,0.00,,,0.00,Wunderground v.1.15,2013-02-24 06:40:00,
2013-02-24 01:50:00,31.9,31.7,29.87,SSE,160,0.0,5.0,99,0.00,,,0.00,Wunderground v.1.15,2013-02-24 06:50:00,
2013-02-24 02:00:00,31.9,31.7,29.86,SSE,159,0.0,5.0,99,0.00,,,0.00,Wunderground v.1.15,2013-02-24 07:00:00,
2013-02-24 02:10:00,31.9,31.7,29.86,SSE,160,0.0,5.0,99,0.00,,,0.00,Wunderground v.1.15,2013-02-24 07:10:00,
2013-02-24 02:19:00,31.9,31.7,29.85,SSE,159,0.0,5.0,99,0.00,,,0.00,Wunderground v.1.15,2013-02-24 07:19:00,
2013-02-24 02:29:00,31.9,31.7,29.84,SSE,160,0.0,5.0,99,0.00,,,0.00,Wunderground v.1.15,2013-02-24 07:29:00,
2013-02-24 02:40:00,31.9,31.7,29.84,SSE,160,0.0,5.0,99,0.00,,,0.00,Wunderground v.1.15,2013-02-24 07:40:00,
2013-02-24 02:50:00,31.9,31.7,29.85,SSE,159,0.0,5.0,99,0.00,,,0.00,Wunderground v.1.15,2013-02-24 07:50:00,
2013-02-24 02:59:00,31.9,31.7,29.84,SSE,160,0.0,5.0,99,0.00,,,0.00,Wunderground v.1.15,2013-02-24 07:59:00,
2013-02-24 03:09:00,31.8,31.6,29.84,SSE,160,0.0,5.0,99,0.00,,,0.00,Wunderground v.1.15,2013-02-24 08:09:00,
2013-02-24 03:20:00,31.8,31.6,29.84,SSE,159,0.0,5.0,99,0.00,,,0.00,Wunderground v.1.15,2013-02-24 08:20:00,
2013-02-24 03:30:00,31.9,31.7,29.83,SSE,160,0.0,5.0,99,0.00,,,0.00,Wunderground v.1.15,2013-02-24 08:30:00,
2013-02-24 03:39:00,31.9,31.7,29.83,SSE,160,0.0,5.0,99,0.00,,,0.00,Wunderground v.1.15,2013-02-24 08:39:00,
2013-02-24 03:50:00,31.9,31.7,29.83,SSE,160,0.0,5.0,99,0.00,,,0.00,Wunderground v.1.15,2013-02-24 08:50:00,
2013-02-24 04:00:00,31.9,31.7,29.83,SSE,159,0.0,5.0,99,0.00,,,0.00,Wunderground v.1.15,2013-02-24 09:00:00,
2013-02-24 04:10:00,31.9,31.7,29.83,SSE,160,0.0,5.0,99,0.00,,,0.00,Wunderground v.1.15,2013-02-24 09:10:00,
2013-02-24 04:19:00,31.9,31.7,29.83,SSE,160,0.0,5.0,99,0.00,,,0.00,Wunderground v.1.15,2013-02-24 09:19:00,
2013-02-24 04:30:00,31.9,31.7,29.83,SSE,160,0.0,5.0,99,0.00,,,0.00,Wunderground v.1.15,2013-02-24 09:30:00,
2013-02-24 04:40:00,31.9,31.7,29.83,SSE,160,0.0,5.0,99,0.00,,,0.00,Wunderground v.1.15,2013-02-24 09:40:00,
2013-02-24 04:50:00,31.8,31.6,29.83,SSE,160,0.0,5.0,99,0.00,,,0.00,Wunderground v.1.15,2013-02-24 09:50:00,
2013-02-24 05:00:00,31.8,31.6,29.84,SSE,160,0.0,5.0,99,0.00,,,0.00,Wunderground v.1.15,2013-02-24 10:00:00,
2013-02-24 05:09:00,31.8,31.6,29.84,SSE,160,0.0,5.0,99,0.00,,,0.00,Wunderground v.1.15,2013-02-24 10:09:00,
2013-02-24 05:20:00,31.9,31.7,29.84,SSE,160,0.0,5.0,99,0.00,,,0.00,Wunderground v.1.15,2013-02-24 10:20:00,
2013-02-24 05:30:00,31.9,31.7,29.84,SSE,160,0.0,5.0,99,0.00,,,0.00,Wunderground v.1.15,2013-02-24 10:30:00,
2013-02-24 05:40:00,31.9,31.7,29.84,SSE,160,0.0,5.0,99,0.00,,,0.00,Wunderground v.1.15,2013-02-24 10:40:00,
2013-02-24 05:49:00,31.8,31.6,29.83,SSE,160,0.0,5.0,99,0.00,,,0.00,Wunderground v.1.15,2013-02-24 10:49:00,
2013-02-24 06:00:00,31.9,31.7,29.83,SSE,160,0.0,5.0,99,0.00,,,0.00,Wunderground v.1.15,2013-02-24 11:00:00,
2013-02-24 06:10:00,31.9,31.7,29.83,SSE,159,0.0,5.0,99,0.00,,,0.00,Wunderground v.1.15,2013-02-24 11:10:00,
2013-02-24 06:20:00,31.9,31.7,29.83,SSE,160,0.0,5.0,99,0.00,,,0.00,Wunderground v.1.15,2013-02-24 11:20:00,
2013-02-24 06:30:00,32.1,31.9,29.83,SSE,159,0.0,5.0,99,0.00,,,0.00,Wunderground v.1.15,2013-02-24 11:30:00,
2013-02-24 06:39:00,32.1,31.9,29.83,SSE,159,0.0,5.0,99,0.00,,,0.00,Wunderground v.1.15,2013-02-24 11:39:00,
2013-02-24 06:49:00,32.2,32.0,29.83,SSE,160,0.0,5.0,99,0.00,,,0.00,Wunderground v.1.15,2013-02-24 11:49:00,
2013-02-24 07:00:00,32.2,32.0,29.82,SSE,159,0.0,5.0,99,0.00,,,0.00,Wunderground v.1.15,2013-02-24 12:00:00,
2013-02-24 07:10:00,32.2,32.0,29.82,SSE,160,0.0,5.0,99,0.00,,,0.00,Wunderground v.1.15,2013-02-24 12:10:00,
2013-02-24 07:20:00,32.2,32.0,29.82,SSE,160,0.0,5.0,99,0.00,,,0.00,Wunderground v.1.15,2013-02-24 12:20:00,
2013-02-24 07:29:00,32.2,32.0,29.83,SSE,159,0.0,5.0,99,0.00,,,0.00,Wunderground v.1.15,2013-02-24 12:29:00,
2013-02-24 07:40:00,32.4,32.2,29.83,SSE,159,0.0,5.0,99,0.00,,,0.00,Wunderground v.1.15,2013-02-24 12:40:00,
2013-02-24 07:50:00,32.4,32.2,29.83,SSE,160,0.0,5.0,99,0.00,,,0.00,Wunderground v.1.15,2013-02-24 12:50:00,
2013-02-24 08:00:00,32.4,32.2,29.83,SSE,159,0.0,5.0,99,0.00,,,0.00,Wunderground v.1.15,2013-02-24 13:00:00,
2013-02-24 08:10:00,32.4,32.2,29.83,SSE,159,0.0,5.0,99,0.00,,,0.00,Wunderground v.1.15,2013-02-24 13:10:00,
2013-02-24 08:20:00,32.5,32.3,29.83,SSE,159,0.0,5.0,99,0.00,,,0.00,Wunderground v.1.15,2013-02-24 13:20:00,
2013-02-24 08:29:00,32.5,32.3,29.83,SSE,159,0.0,5.0,99,0.00,,,0.01,Wunderground v.1.15,2013-02-24 13:29:00,
2013-02-24 08:40:00,32.7,32.5,29.83,SSE,160,0.0,5.0,99,0.00,,,0.01,Wunderground v.1.15,2013-02-24 13:40:00,
2013-02-24 08:50:00,32.7,32.5,29.83,SSE,160,0.0,5.0,99,0.00,,,0.01,Wunderground v.1.15,2013-02-24 13:50:00,
2013-02-24 09:00:00,32.7,32.5,29.82,SSE,160,0.0,5.0,99,0.00,,,0.01,Wunderground v.1.15,2013-02-24 14:00:00,
2013-02-24 09:09:00,32.9,32.7,29.82,SSE,160,0.0,5.0,99,0.00,,,0.02,Wunderground v.1.15,2013-02-24 14:09:00,
2013-02-24 09:20:00,33.4,33.4,29.82,SSE,160,0.0,5.0,100,0.00,,,0.02,Wunderground v.1.15,2013-02-24 14:20:00,
2013-02-24 09:30:00,34.0,34.0,29.81,SSE,160,0.0,5.0,100,0.00,,,0.02,Wunderground v.1.15,2013-02-24 14:30:00,
2013-02-24 09:40:00,33.5,33.2,29.81,SSE,160,0.0,5.0,99,0.00,,,0.02,Wunderground v.1.15,2013-02-24 14:40:00,
2013-02-24 09:49:00,33.4,33.1,29.81,SSE,160,0.0,5.0,99,0.00,,,0.03,Wunderground v.1.15,2013-02-24 14:49:00,
2013-02-24 10:00:00,33.5,33.2,29.81,SSE,160,0.0,5.0,99,0.07,,,0.04,Wunderground v.1.15,2013-02-24 15:00:00,
2013-02-24 10:10:00,33.7,33.4,29.81,SSE,160,0.0,5.0,99,0.04,,,0.04,Wunderground v.1.15,2013-02-24 15:10:00,
2013-02-24 10:20:00,33.5,33.2,29.80,SSE,160,0.0,5.0,99,0.00,,,0.04,Wunderground v.1.15,2013-02-24 15:20:00,
2013-02-24 10:30:00,33.5,33.2,29.81,SSE,160,0.0,5.0,99,0.00,,,0.05,Wunderground v.1.15,2013-02-24 15:30:00,
2013-02-24 10:39:00,33.8,33.5,29.81,SSE,160,0.0,5.0,99,0.04,,,0.06,Wunderground v.1.15,2013-02-24 15:39:00,
2013-02-24 10:50:00,33.8,33.5,29.80,SSE,160,0.0,5.0,99,0.04,,,0.06,Wunderground v.1.15,2013-02-24 15:50:00,
2013-02-24 11:00:00,33.7,33.4,29.80,SSE,160,0.0,5.0,99,0.00,,,0.06,Wunderground v.1.15,2013-02-24 16:00:00,
2013-02-24 11:10:00,33.7,33.4,29.80,SSE,160,0.0,5.0,99,0.00,,,0.07,Wunderground v.1.15,2013-02-24 16:10:00,
2013-02-24 11:20:00,34.0,33.7,29.80,SSE,160,0.0,5.0,99,0.00,,,0.07,Wunderground v.1.15,2013-02-24 16:20:00,
2013-02-24 11:30:00,34.0,33.7,29.80,SSE,160,0.0,5.0,99,0.04,,,0.08,Wunderground v.1.15,2013-02-24 16:30:00,
2013-02-24 11:40:00,34.3,34.0,29.80,SSE,160,0.0,5.0,99,0.04,,,0.08,Wunderground v.1.15,2013-02-24 16:40:00,
2013-02-24 11:49:00,34.4,34.1,29.80,SSE,160,0.0,5.0,99,0.00,,,0.08,Wunderground v.1.15,2013-02-24 16:49:00,
2013-02-24 12:00:00,34.9,34.6,29.80,SSE,160,0.0,5.0,99,0.00,,,0.09,Wunderground v.1.15,2013-02-24 17:00:00,
2013-02-24 12:10:00,34.4,34.1,29.80,SSE,160,0.0,5.0,99,0.00,,,0.09,Wunderground v.1.15,2013-02-24 17:10:00,
2013-02-24 12:20:00,34.9,34.6,29.80,SSE,160,0.0,5.0,99,0.04,,,0.10,Wunderground v.1.15,2013-02-24 17:20:00,
2013-02-24 12:29:00,35.3,34.8,29.79,SSE,160,0.0,5.0,98,0.04,,,0.10,Wunderground v.1.15,2013-02-24 17:29:00,
2013-02-24 12:40:00,35.2,34.7,29.79,SSE,160,0.0,5.0,98,0.00,,,0.10,Wunderground v.1.15,2013-02-24 17:40:00,
2013-02-24 12:50:00,35.0,34.5,29.78,SSE,160,0.0,5.0,98,0.00,,,0.11,Wunderground v.1.15,2013-02-24 17:50:00,
2013-02-24 13:00:00,34.9,34.4,29.78,SSE,160,0.0,5.0,98,0.04,,,0.12,Wunderground v.1.15,2013-02-24 18:00:00,
2013-02-24 13:09:00,35.2,34.7,29.78,SSE,160,0.0,5.0,98,0.04,,,0.12,Wunderground v.1.15,2013-02-24 18:09:00,
2013-02-24 13:20:00,35.2,34.4,29.78,SSE,160,0.0,5.0,97,0.00,,,0.12,Wunderground v.1.15,2013-02-24 18:20:00,
2013-02-24 13:30:00,34.9,34.1,29.78,SSE,160,0.0,5.0,97,0.00,,,0.12,Wunderground v.1.15,2013-02-24 18:30:00,
2013-02-24 13:40:00,34.9,34.1,29.78,SSE,160,0.0,5.0,97,0.00,,,0.12,Wunderground v.1.15,2013-02-24 18:40:00,
2013-02-24 13:50:00,35.0,34.2,29.78,SSE,160,0.0,5.0,97,0.00,,,0.13,Wunderground v.1.15,2013-02-24 18:50:00,
2013-02-24 14:00:00,34.7,33.9,29.78,SSE,160,0.0,5.0,97,0.00,,,0.13,Wunderground v.1.15,2013-02-24 19:00:00,
2013-02-24 14:10:00,34.6,33.8,29.78,SSE,160,0.0,5.0,97,0.00,,,0.13,Wunderground v.1.15,2013-02-24 19:10:00,
2013-02-24 14:20:00,34.7,33.9,29.78,SSE,160,0.0,5.0,97,0.00,,,0.14,Wunderground v.1.15,2013-02-24 19:20:00,
2013-02-24 14:30:00,34.7,33.9,29.78,SSE,160,0.0,5.0,97,0.00,,,0.14,Wunderground v.1.15,2013-02-24 19:30:00,
2013-02-24 14:39:00,34.6,33.8,29.78,SSE,160,0.0,5.0,97,0.00,,,0.14,Wunderground v.1.15,2013-02-24 19:39:00,
2013-02-24 14:50:00,34.6,33.8,29.78,SSE,160,0.0,5.0,97,0.00,,,0.14,Wunderground v.1.15,2013-02-24 19:50:00,
2013-02-24 15:00:00,34.6,33.8,29.78,SSE,160,0.0,5.0,97,0.00,,,0.14,Wunderground v.1.15,2013-02-24 20:00:00,
2013-02-24 15:10:00,34.4,33.9,29.78,SSE,160,0.0,5.0,98,0.00,,,0.14,Wunderground v.1.15,2013-02-24 20:10:00,
2013-02-24 15:20:00,34.4,33.9,29.78,SSE,160,0.0,5.0,98,0.00,,,0.14,Wunderground v.1.15,2013-02-24 20:20:00,
2013-02-24 15:30:00,34.3,33.8,29.78,SSE,160,0.0,5.0,98,0.00,,,0.15,Wunderground v.1.15,2013-02-24 20:30:00,
2013-02-24 15:40:00,34.1,33.6,29.78,SSE,160,0.0,5.0,98,0.00,,,0.15,Wunderground v.1.15,2013-02-24 20:40:00,
2013-02-24 15:50:00,33.8,33.3,29.80,West,272,2.0,5.0,98,0.00,,,0.16,Wunderground v.1.15,2013-02-24 20:50:00,
2013-02-24 16:00:00,33.1,32.6,29.80,West,277,6.0,8.0,98,0.00,,,0.16,Wunderground v.1.15,2013-02-24 21:00:00,
2013-02-24 16:10:00,32.7,32.2,29.80,WNW,291,5.0,5.0,98,0.00,,,0.16,Wunderground v.1.15,2013-02-24 21:10:00,
2013-02-24 16:20:00,32.5,32.0,29.81,West,276,5.0,5.0,98,0.00,,,0.16,Wunderground v.1.15,2013-02-24 21:20:00,
2013-02-24 16:30:00,32.4,31.9,29.81,West,262,4.0,4.0,98,0.00,,,0.16,Wunderground v.1.15,2013-02-24 21:30:00,
2013-02-24 16:40:00,32.4,32.2,29.81,West,261,3.0,5.0,99,0.00,,,0.16,Wunderground v.1.15,2013-02-24 21:40:00,
2013-02-24 16:49:00,32.2,32.0,29.81,SW,235,5.0,7.0,99,0.00,,,0.16,Wunderground v.1.15,2013-02-24 21:49:00,
2013-02-24 16:59:00,32.2,32.0,29.82,WNW,299,5.0,5.0,99,0.00,,,0.16,Wunderground v.1.15,2013-02-24 21:59:00,
2013-02-24 17:10:00,32.1,31.9,29.82,WNW,287,4.0,5.0,99,0.00,,,0.16,Wunderground v.1.15,2013-02-24 22:10:00,
2013-02-24 17:20:00,32.1,31.9,29.83,West,261,4.0,4.0,99,0.00,,,0.16,Wunderground v.1.15,2013-02-24 22:20:00,
2013-02-24 17:30:00,31.9,31.7,29.83,West,270,4.0,5.0,99,0.00,,,0.16,Wunderground v.1.15,2013-02-24 22:30:00,
2013-02-24 17:39:00,31.9,31.7,29.83,West,266,5.0,5.0,99,0.00,,,0.16,Wunderground v.1.15,2013-02-24 22:39:00,
2013-02-24 17:50:00,31.9,31.7,29.84,West,271,3.0,3.0,99,0.00,,,0.16,Wunderground v.1.15,2013-02-24 22:50:00,
2013-02-24 18:00:00,31.9,31.7,29.85,WNW,298,3.0,3.0,99,0.00,,,0.16,Wunderground v.1.15,2013-02-24 23:00:00,
2013-02-24 18:10:00,31.8,31.6,29.85,West,270,2.0,5.0,99,0.00,,,0.16,Wunderground v.1.15,2013-02-24 23:10:00,
2013-02-24 18:20:00,31.8,31.6,29.86,West,281,3.0,5.0,99,0.00,,,0.16,Wunderground v.1.15,2013-02-24 23:20:00,
2013-02-24 18:30:00,31.8,31.6,29.87,WNW,289,3.0,5.0,99,0.00,,,0.16,Wunderground v.1.15,2013-02-24 23:30:00,
2013-02-24 18:40:00,31.8,31.6,29.87,West,273,2.0,5.0,99,0.00,,,0.16,Wunderground v.1.15,2013-02-24 23:40:00,
2013-02-24 18:50:00,31.6,31.4,29.88,West,260,4.0,5.0,99,0.00,,,0.16,Wunderground v.1.15,2013-02-24 23:50:00,
2013-02-24 19:00:00,31.5,31.3,29.88,West,276,3.0,3.0,99,0.00,,,0.16,Wunderground v.1.15,2013-02-25 00:00:00,
2013-02-24 19:10:00,31.3,31.1,29.88,West,265,4.0,5.0,99,0.00,,,0.16,Wunderground v.1.15,2013-02-25 00:10:00,
2013-02-24 19:19:00,31.3,31.1,29.89,West,268,3.0,3.0,99,0.00,,,0.16,Wunderground v.1.15,2013-02-25 00:19:00,
2013-02-24 19:30:00,31.3,31.1,29.90,West,268,2.0,2.0,99,0.00,,,0.16,Wunderground v.1.15,2013-02-25 00:30:00,
2013-02-24 19:40:00,31.3,31.1,29.90,WNW,285,2.0,2.0,99,0.00,,,0.16,Wunderground v.1.15,2013-02-25 00:40:00,
2013-02-24 19:50:00,31.2,31.0,29.91,WNW,285,2.0,2.0,99,0.00,,,0.16,Wunderground v.1.15,2013-02-25 00:50:00,
2013-02-24 20:00:00,31.2,31.0,29.91,WNW,285,1.0,1.0,99,0.00,,,0.16,Wunderground v.1.15,2013-02-25 01:00:00,
2013-02-24 20:10:00,31.2,31.0,29.91,WNW,282,1.0,1.0,99,0.00,,,0.16,Wunderground v.1.15,2013-02-25 01:10:00,
2013-02-24 20:20:00,31.2,31.0,29.92,West,262,2.0,2.0,99,0.00,,,0.16,Wunderground v.1.15,2013-02-25 01:20:00,
2013-02-24 20:30:00,31.0,30.8,29.92,West,262,1.0,1.0,99,0.00,,,0.16,Wunderground v.1.15,2013-02-25 01:30:00,
2013-02-24 20:40:00,31.0,30.8,29.92,West,262,2.0,5.0,99,0.00,,,0.16,Wunderground v.1.15,2013-02-25 01:40:00,
2013-02-24 20:50:00,31.0,30.8,29.92,West,262,1.0,5.0,99,0.00,,,0.16,Wunderground v.1.15,2013-02-25 01:50:00,
2013-02-24 21:00:00,30.9,30.7,29.93,West,262,2.0,5.0,99,0.00,,,0.16,Wunderground v.1.15,2013-02-25 02:00:00,
2013-02-24 21:10:00,30.7,30.5,29.93,WNW,283,2.0,5.0,99,0.00,,,0.16,Wunderground v.1.15,2013-02-25 02:10:00,
2013-02-24 21:20:00,30.7,30.5,29.94,WNW,283,2.0,2.0,99,0.00,,,0.16,Wunderground v.1.15,2013-02-25 02:20:00,
2013-02-24 21:29:00,30.6,30.4,29.94,WNW,283,2.0,2.0,99,0.00,,,0.16,Wunderground v.1.15,2013-02-25 02:29:00,
2013-02-24 21:40:00,30.6,30.4,29.94,West,263,2.0,2.0,99,0.00,,,0.16,Wunderground v.1.15,2013-02-25 02:40:00,
2013-02-24 21:50:00,30.4,30.2,29.94,West,260,2.0,2.0,99,0.00,,,0.16,Wunderground v.1.15,2013-02-25 02:50:00,
2013-02-24 22:00:00,30.4,30.2,29.94,NW,315,3.0,9.0,99,0.00,,,0.16,Wunderground v.1.15,2013-02-25 03:00:00,
2013-02-24 22:10:00,30.3,30.1,29.94,WNW,283,4.0,4.0,99,0.00,,,0.16,Wunderground v.1.15,2013-02-25 03:10:00,
2013-02-24 22:20:00,30.3,30.1,29.95,West,270,2.0,5.0,99,0.00,,,0.16,Wunderground v.1.15,2013-02-25 03:20:00,
2013-02-24 22:29:00,30.3,30.1,29.95,West,276,2.0,2.0,99,0.00,,,0.16,Wunderground v.1.15,2013-02-25 03:29:00,
2013-02-24 22:39:00,30.3,30.1,29.95,West,276,1.0,1.0,99,0.00,,,0.16,Wunderground v.1.15,2013-02-25 03:39:00,
2013-02-24 22:50:00,30.3,30.1,29.96,West,276,1.0,1.0,99,0.00,,,0.16,Wunderground v.1.15,2013-02-25 03:50:00,
2013-02-24 23:00:00,30.3,30.1,29.96,West,276,0.0,5.0,99,0.00,,,0.16,Wunderground v.1.15,2013-02-25 04:00:00,
2013-02-24 23:10:00,30.3,30.1,29.96,West,276,0.0,5.0,99,0.00,,,0.16,Wunderground v.1.15,2013-02-25 04:10:00,
2013-02-24 23:20:00,30.3,30.1,29.96,West,276,0.0,5.0,99,0.00,,,0.16,Wunderground v.1.15,2013-02-25 04:20:00,
2013-02-24 23:30:00,30.3,30.1,29.97,West,276,0.0,5.0,99,0.00,,,0.16,Wunderground v.1.15,2013-02-25 04:30:00,
2013-02-24 23:39:00,30.1,29.9,29.97,West,276,0.0,5.0,99,0.00,,,0.16,Wunderground v.1.15,2013-02-25 04:39:00,
2013-02-24 23:50:00,30.1,29.9,29.97,West,276,1.0,1.0,99,0.00,,,0.16,Wunderground v.1.15,2013-02-25 04:50:00,